Tracking 30746 objects as of 19-Jun-2025
HD Live streaming from Space Station
objects crossing your sky now

COSMOS 1275 DEB

Track COSMOS 1275 DEB now!
10-day predictions


NORAD ID: 14441
Int'l Code: 1981-053JL
Perigee: 837.1 km
Apogee: 891.1 km
Inclination: 83.1 °
Period: 102.1 minutes
Semi major axis: 7235 km
RCS: 0.0079 m2 (small)
Launch date: June 4, 1981
Source: Commonwealth of Independent States (former USSR) (CIS)
Launch site: PLESETSK MISSILE AND SPACE COMPLEX (PKMTR)

Note: This is SATELLITE DEBRIS
Your satellite tracking list
Your tracking list is empty




NASA's NSSDC Master Catalog

Two Line Element Set (TLE):
1 14441U 81053JH  25169.31139113  .00001135  00000-0  62244-3 0  9997
2 14441  83.1146 193.5341 0037368 337.3323  22.6202 14.10702394221736
Source of the keplerian elements: AFSPC